ATLAS 5 CENTAUR DEB, 49356

Orbit data source: Space-Track

ATLAS 5 CENTAUR DEB, 49356 is space debris in HEO originally from a launch on Wed, 17 Oct 2018 UTC launched from the Air Force Eastern Test Range (AFETR). Debris objects in space refer to the collection of defunct objects orbiting the Earth. Examples of debris include non-operational satellites, rocket bodies, and fragments generated from explosions, collisions, or faulty payload assembly.

Loading next visibility...
Identifier
49356, 2018-079FH
Orbit
HEO
Country
Flag of USUS
Related business
Flag of USUnited Launch Alliance/Lockheed Martin (US)
Manufacturer
ULA Decatur
Mission
Spacecraft
Bus & Motor
Unknown
Mass
Unknown
Launch date (UTC)
2018-10-17 (7 years ago)
Launch vehicle
Unknown
Launch site
Air Force Eastern Test Range (AFETR)
Object type
Payload
Rocket body
Debris
Shape & HBR
Unknown shape, 1.1 m
Radar Cross Section
RCS unknown

Expand to show TLE details & history
Last TLE update: 3 days ago

TLE from 3 days ago
0 ATLAS 5 CENTAUR DEB
1 49356U 18079FH  25294.78412232 -.00000073  00000-0  00000-0 0  9994
2 49356  13.0390  63.9046 4638629 255.3779  50.4717  1.78467962 27035
Epoch: 2025-10-21T18:49Z
TLE epoch observation values (Epoch: 2025-10-21T18:49:08.168Z)
Latitude
-0.00001°
Longitude
111.07946°
Altitude
19,125.285 km
Speed
4.168 km/s
True Right ascension
04h 15m 19s
True Declination
0° 00' 00"
Sunlit
Object was in daylight at epoch
Visualization orbit readout
Latitude
Unknown
Longitude
Unknown
Altitude
Unknown
Speed
Unknown
Apparent Right ascension
Unknown
Apparent Declination
Unknown
Sunlit
N/A
Visualization observer readout
Local Sidereal Time
01:13:14
Azimuth
Unknown
Elevation
Unknown
Doppler factor
Unknown
Orbital elements
Apogee altitude
35,651.906 km
Perigee altitude
9,015.289 km
Semi-major axis
28,711.734 km
Eccentricity
0.46386
Inclination
13.039°
RAAN
63.9046°
Arg. of periapsis
255.3779°
True anomaly
104.76829°
Mean anomaly
50.4717°
Eccentric anomaly
76.29206°
Mean motion
0.44612 °/min
Orbital period
806.95 mins
BSTAR
0
Loading maneuver chart data...
Computing Atmospheric mass density...

Documentation

Showing up to 5 results
|